sat.trackr.live / text

‹ back to catalog

GPS BIIR-13 (PRN 02)

NORAD 28474 · 2004-045A

PAYLOAD ACTIVE UNKNOWN

§ Identity

Operator
Country
US
Launch date
2004-11-06
Launch site
AFETR
Launch vehicle
Mass (kg)
RCS (m²)
2.51

Purposes: earth_obs, nav

External: N2YO · Heavens-Above · Gunter

§ Orbital elements

Epoch: 2026-09-19T12:13:04.923264Z

Period
717.99 min
Inclination
55.0745°
Eccentricity
0.0172338
Mean motion
2.00560146 rev/d
Perigee alt
19,724.8 km
Apogee alt
20,640.3 km
Semi-major
26,560.7 km
B*
0.0000e+0
RAAN
321.0917°
Arg perigee
318.7395°
Mean anomaly
22.2982°
Rev number
16,031

§ Raw data

GPS BIIR-13 (PRN 02)1 28474U 04045A   26262.50908476 -.00000071  00000+0  00000+0 0  99922 28474  55.0745 321.0917 0172338 318.7395  22.2982  2.00560146160316

JSON: /api/v1/satellites/28474 · /tle

For live sub-satellite position, see the globe view (requires WebGL).

§ Visibility from observer

Set your observer location to see the next 7 days of passes ≥ 10°. The values pass through the URL so the page stays shareable.

No JS? Fill the form by hand. The geolocation button needs JavaScript.